Погода Огурцово

Погода Огурцово : погода сейчас, прогноз погоды и архив. Всё, что Вы хотите узнать о погоде Огурцово!

Хотите узнать прогноз погоды Огурцово? Тогда Вам сюда: Погода Огурцово

Поиск расширенной информации на нашем сайте:

Другие новости

Новости СМИ2

Главная страница сайта

Новости сайта

03.07.2017

Напоминаем, что на нашем специализированном сайте Метеоцентр.Азия вы можете получить высокодетализированные автоматические прогнозы погоды по пунктам России, СНГ и мира в авиационном формате (включающие направление и скорость ветра, видимость, явления погоды, количество и форму облачности, нижнюю и верхнюю границу облачности).

Рекомендуем: Строительство и монтаж волс terza волс строительство.

Погода Огурцово - сегодня

Время (UTC), дата Ветер
(°,м/с) 
Видим.   Явления Облачность Т
(°С)
Тd
(°С)
f(%) Тe
(°С)
Pmin
(гПа)
dP
(гПа)
Po
(мм)
O2
(г/м3)
Тmin Tmax R s Состояние
почвы
03 21.09.17 170 (Ю) 18000 м    10/10 600 м кучево-дожд. 
[Cb cap]
+9.6 +8 90 +9  1005.6  -2.8  742  288           
06 21.09.17 250 (З) 19000 м    10/10 600 м кучево-дожд. 
[Cb cap]
+11.1 +9.1 87 +11  1004.5  -1  742  285           
09 21.09.17 280 (З) 18000 м  в посл. час ливневой дождь  10/10 600 м кучево-дожд. 
[Cb cap]
+11.5 +9.1 85 +11  1004.2  -0.2  741  285           
12 21.09.17 280 (З) 17000 м  в посл. час ливневой дождь  10/10 600 м кучево-дожд. 
[Cb cap]
+9.7 +8 89 +9  1005.6  1.3  742  287    +11.8     
15 21.09.17 320 (СЗ) 10 км  слаб. ливневой дождь  10/10 600 м кучево-дожд. 
[Cb cap]
+7.8 +6.3 90 +7  1007  1.2  743  290           
18 21.09.17 300 (СЗ) 10 км  слаб. ливневой дождь  10/10 300 м кучево-дожд. 
[Cb cap]
+7.2 +5.7 90 +6  1007.6  0.6  744  291           
21 21.09.17 290 (З) 10 км  слаб. ливневой дождь  10/10 300 м кучево-дожд. 
[Cb cap]
+7 +5.6 91 +6  1008.6  0.9  744  292           
00 22.09.17 300 (СЗ) 10 км  слаб. ливневой дождь  10/10 600 м кучево-дожд. 
[Cb cap]
+6.7 +5.4 91 +5  1009.8  1.2  745  292  +6.7      влажная 
03 22.09.17 290 (З) 16000 м  {ливн. осадки}  10/10 600 м кучево-дожд. 
[Cb cap]
+7.2 +5.4 88 +6  1011.4  1.6  746  292  +6.6         
06 22.09.17 310 (СЗ) 20000 м  {ливн. осадки}  10/10 600 м кучево-дожд. 
[Cb cap]
+7.1 +4.6 84 +6  1012.5  1.1  747  293           
09 22.09.17 300 (СЗ) 22000 м    10/10 600 м кучево-дожд. 
[Cb cap]
+7.5 +2.7 72 +7  1013.4  0.9  748  293           
12 22.09.17 300 (СЗ) 21000 м    10/10 600 м кучево-дожд. 
[Cb cap]
+7.1 +1.8 69 +6  1014.3  0.8  749  294    +8.1  0.4     
15 22.09.17 240 (ЮЗ) 20000 м    10/5 600 м кучево-дожд., верхняя 
[Cb cap|Ci fib]
+4.9 +1.7 80 +6  1014.8  0.4  749  296           
18 22.09.17 280 (З) 10 км  слаб. ливневой дождь  10/10 600 м кучево-дожд. 
[Cb cap]
+4.4 +2.2 86 +5  1014.2  -0.6  748  296           
21 22.09.17 тихо ()   10 км  слаб. ливневой дождь  10/10 600 м кучево-дожд. 
[Cb cap]
+4 +2.3 89 +4  1013.5  -0.7  748  297           
00 23.09.17 320 (СЗ) 10 км  слаб. ливневой дождь  10/10 600 м кучево-дожд. 
[Cb cap]
+2.8 +1.5 91 +2  1013.5  748  298  +2.8      влажная 
03 23.09.17 340 (С) 9000 м  слаб. ливневой дождь  10/10 600 м кучево-дожд. 
[Cb cap]
+2.3 +1.2 92 +1  1013.8  0.2  748  299  +2.1         
06 23.09.17 330 (СЗ) 4200 м  слаб. крупа{снег}  10/10 600 м кучево-дожд. 
[Cb cap]
+1.9 +0.4 90 1014.1  0.2  748  299           
09 23.09.17 310 (СЗ) 12000 м  {ливн. осадки}  10/10 600 м кучево-дожд. 
[Cb cap]
+2.9 -0.9 76 +2  1014.8  0.7  749  299           
12 23.09.17 310 (СЗ) 17000 м  {ливн. осадки}  10/10 600 м кучево-дожд. 
[Cb cap]
+2.4 -2.3 71 +2  1016.4  1.6  750  300    +3.1     
15 23.09.17 290 (З) 20000 м    10/10 600 м кучево-дожд. 
[Cb cap]
+1.9 -2.8 71 +1  1017.8  1.4  751  301           
18 23.09.17 260 (З) 20000 м    10/10 600 м кучево-дожд. 
[Cb cap]
+0.9 -2 81 +2  1019.1  1.2  752  302           
21 23.09.17 280 (З) 20000 м    4/4 1000 м 
[Sc]
-0.4 -2 89 1020.8  1.6  753  304           
00 24.09.17 270 (З) 1000 м  дымка  10/10 1000 м 
[Sc]
-1.7 -2.7 93 -4  1023  2.1  755  306  -1.7        замёрзшая 
03 24.09.17 280 (З) 1800 м  дымка{туман}  10/10 1000 м 
[Sc]
-0.1 -1.1 93 -2  1025  756  305  -2         
Время (UTC), дата Ветер
(°,м/с) 
Видим.   Явления Облачность Т
(°С)
Тd
(°С)
f(%) Тe
(°С)
Pmin
(гПа)
dP
(гПа)
Po
(мм)
O2
(г/м3)
Тmin Tmax R s Состояние
почвы

Для получения пояснительной информации подведите курсор к названию столбца.

ПОГОДА Огурцово - архив

Всё, что Вы хотите узнать о погоде Огурцово - удобно и подробно!

Выберите нужную дату (начиная с 1 января 2015* года) и нажмите кнопку "Найти".
Будут отображены архивные сводки погоды по пункту Огурцово, начиная с указанной даты.


Отображать данные в формате CSV (для использования в таблицах Excel)


Внимание! Наш архив погоды предназначен исключительно для личного некоммерческого использования в познавательных целях. Если Вам необходимы официальные справки о состоянии погоды (для производственных, юридических, коммерческих и т.п. целей), обращайтесь в органы Росгидромета.

*Примечание: данная дата относится к архиву по метеостанциям СССР (Россия, СНГ, Балтия).
Архив по метеостанциям Зарубежной Европы и Азии (кроме Китая) хранится 10 дней, по другим регионам земного шара (Китай, Африка, Америка, Австралия, Океания) - 1 день.

Огурцово - район местоположения метеостанции


Название, широта, долгота, высота метеостанции:
Огурцово 54.9°ш. 82.9°д. 133 м над ур. моря [Российская Федерация]

Дополнительная информация

В oтличие oт бoльшинства пoгoдных сайтoв мы публикуем пoдрoбную метеoинфoрмацию в детальнoм прoфессиoнальнoм фoрмате.

Характеристики температуры и влажнoсти вoздуха измеряются на высoте 2 м в тени вдали oт зданий и деревьев.
Скoрoсть ветра измеряется на высoте 10 м (на урoвне рoста челoвека скoрoсть ветра ниже в 1.5-2 раза). Если метеoстанция нахoдится в гoрoде или в лесу, тo скoрoсть ветра занижена на 2-4 м/с пo сравнению с oткрытым местoм. Скoрoсть ветра над акватoриями крупных рек и oзёр, а также на вершинах хoлмoв на 2-5 м/с выше, чем в oбычных услoвиях.
Атмoсфернoе давление в разных тoчках местнoсти мoжет значительнo oтличаться oт давления на метеoстанции, в зависимoсти oт услoвий рельефа (при пoдъёме на 10 м давление пoнижается примернo на 1 мм рт.ст.).